Weather in Hà Tĩnh

Vietnam     18°20′27″N   105°54′03″E
temp.,
°C
wind,
m/s
gust,
m/s
humid.,
%
clouds,
%
prec.,
mm/h
press.,
hPa
HPBL,
m
25 january, tue
tue2501:00+20w119859 0.0 101216
04:00+21wsw119691 0.1 101265
07:00+21nw139496 0.2 1013181
10:00+21nnw1292100 0.3 1015243
13:00+22nne238850 0.5 1012397
16:00+23ne348536 0.1 1010424
19:00+20ne119645 0.1 101222
22:00+21e009597 0.0 101332
26 january, wed
wed2601:00+21nw0095100 0.0 101327
04:00+21wnw119598 0.1 101223
07:00+21nw1194100 0.2 101339
10:00+23nnw228751 0.3 1015339
13:00+24nne227968 0.7 1012620
16:00+24ne348114 0.1 1010461
19:00+21e11957 0.1 101232
22:00+20ssw11976 0.0 101315
27 january, thu
thu2701:00+20sw119717 0.0 101312
04:00+20wnw119751 0.0 101223
07:00+21nw119576 0.0 101343
10:00+23nne1184100 0.0 1015291
13:00+26ene1273100 0.1 1012830
16:00+24ene348488 0.1 1010321
19:00+21e229463 0.1 101253
22:00+20sse11979 0.0 101325
28 january, fri
fri2801:00+20wsw119794 0.0 101313
04:00+20wnw129767 0.0 101245
07:00+21sw119458 0.1 101323
10:00+25ne117579 0.1 1014455
13:00+25ne237198 0.1 1011600
16:00+26e45663 0.0 1009724
19:00+21ese228849 0.0 101059
22:00+20s119548 0.0 101123
29 january, sat
sat2901:00+20wnw119715 0.0 101015
04:00+20wnw119663 0.0 101037
07:00+20ssw11955 0.0 101139
10:00+26ese237228 0.0 1011816
13:00+27ne447094 0.0 1008787
16:00+23ene37877 1.4 1006222
19:00+22e1294100 2.1 100946
22:00+22ne119488 0.4 101125